Погода в Савине

Россия / Ярославская область     57°37′38″N   38°29′37″E
темп.,
°C
ветер,
м/с
пор.,
м/с
влажн.,
%
обл.,
%
осадки,
мм/ч
давл.,
гПа
погр.,
м
14 июня, пн
пн1400:00+17ююв2377100 0.0 100961
03:00+15юз228159 0.0 101020
06:00+17юз2583100 0.0 1011134
09:00+18юз2475100 0.0 1013245
12:00+23зюз345781 0.0 1013889
15:00+24з3449100 0.1 10131354
18:00+20зсз127721 0.3 1014196
21:00+17ссз249284 1.7 101471
15 июня, вт
вт1500:00+14ссв2294100 0.0 101523
03:00+13св119464 0.0 101511
06:00+16св119053 0.0 101569
09:00+21ю116842 0.0 1014523
12:00+24з24536 0.0 10121359
15:00+25зюз355526 0.0 10111192
18:00+23з246899 0.0 1009277
21:00+19ююз227511 0.1 100922
16 июня, ср
ср1600:00+18зюз2478100 0.1 1009104
03:00+16ссз3871100 0.1 1009263
06:00+15ссз4983100 0.0 1011384
09:00+18ссз46665 0.0 1012881
12:00+21сз67392 0.0 10132044
15:00+21сз57367 0.0 10142257
18:00+20сз47465 0.0 10151667
21:00+14зсз37659 0.0 1017126
17 июня, чт
чт1700:00+12зсз38625 0.0 1019127
03:00+10зсз36705 0.0 1021100
06:00+13сз26725 0.0 1022180
09:00+18сз36532 0.0 1023944
12:00+21сз57415 0.0 10232175
15:00+23сз46381 0.0 10232202
18:00+22сз25480 0.0 10241784
21:00+17юз117239 0.0 102411
18 июня, пт
пт1800:00+14з22761 0.0 102518
03:00+13зюз228362 0.0 102627
06:00+15зюз23742 0.0 1027106
09:00+21зюз245898 0.0 1026484
12:00+24зюз454856 0.0 10261356
15:00+25зюз4648100 0.0 10251553
18:00+25зюз365797 0.0 10241242
21:00+19юз38800 0.0 1024131